Skip Page Navigation
NASA JPL Caltech
NASA Logo - Jet Propulsion Laboratory + View the NASA Portal
+ Near-Earth Object (NEO) Program
Search JPL
JPL Home Earth Solar System Stars & Galaxies Technology
JPL Solar System Dynamics
BODIES ORBITS EPHEMERIDES TOOLS PHYSICAL DATA DISCOVERY FAQ SITE MAP
JPL Small-Body Database Browser
Search: [ help ]  
6311 Porubcan (1990 RQ2)
Classification: Main-belt Asteroid          SPK-ID: 2006311
Ephemeris | Orbit Diagram | Orbital Elements | Physical Parameters | Discovery Circumstances | Close-Approach Data ]

[ show orbit diagram ]
Orbital Elements at Epoch 2457000.5 (2014-Dec-09.0) TDB
Reference: JPL 8 (heliocentric ecliptic J2000)
 Element Value Uncertainty (1-sigma)   Units 
e .2246245021312761 4.5912e-08  
a 2.289320590586936 1.0203e-08 AU
q 1.775083092707467 1.0855e-07 AU
i 5.170741634134518 5.7746e-06 deg
node 344.1308873286138 5.3486e-05 deg
peri 70.12286423134623 5.4821e-05 deg
M 321.3803906009288 1.3628e-05 deg
tp 2457136.226210823493
(2015-Apr-23.72621082)
4.8262e-05 JED
period 1265.197568197894
3.46
8.4583e-06
2.316e-08
d
yr
n .2845405405835328 1.9022e-09 deg/d
Q 2.803558088466405 1.2495e-08 AU
  Orbit Determination Parameters
   # obs. used (total)      1045  
   data-arc span      23542 days (64.45 yr)  
   first obs. used      1950-03-21  
   last obs. used      2014-09-03  
   planetary ephem.      DE431  
   SB-pert. ephem.      SB431-BIG16  
   condition code      0  
   fit RMS      .53163  
   data source      ORB  
   producer      Otto Matic  
   solution date      2014-Sep-12 13:49:37  

Additional Information
 Earth MOID = .793812 AU 
 T_jup = 3.560 
[ show covariance matrix ]

Ephemeris | Orbit Diagram | Orbital Elements | Physical Parameters | Discovery Circumstances | Close-Approach Data ]

Physical Parameter Table
Parameter Symbol Value Units Sigma Reference Notes
absolute magnitude H 13.7 mag n/a MPO265991  

6311 Porubcan (1990 RQ2)          Discovered 1990-Sep-15 by Holt, H. E. at Palomar (675)
Reference: DISCOVERY.DBLast Updated: 2003-08-29

[ show close-approach data ]
Alternate Designations
 1990 RQ2 = 1976 SR = 1978 GZ = 1981 BX = 1983 RW1 
Ephemeris | Orbit Diagram | Orbital Elements | Physical Parameters | Discovery Circumstances | Close-Approach Data ]
ABOUT SSD CREDITS/AWARDS PRIVACY/COPYRIGHT GLOSSARY LINKS
FirstGov 2014-Sep-22 02:11 UT
(server date/time)  
NASA Home Page
Site Manager:   Donald K. Yeomans
Webmaster  Alan B. Chamberlin